Cherokee, North Carolina, United States (28719)
Lat: 35.47N, Lon: 83.31W
Wx Zone: NCZ051
Local Info
Past Weather Observations for Today

NOTE: This archive is for the closest National Weather Service station to Cherokee. Information may differ from the station used for current weather conditions.

Click here for Long-term Archive

Time Weather Temperature Dewpoint Humidity Pressure Winds Precip Visibility
18:55
Fair
72°F / 22°C 63°F / 17°C 73% 30.15 in
(1021 mb)
Calm - 10SM
18:35
Fair
75°F / 24°C 63°F / 17°C 65% 30.15 in
(1021 mb)
Calm - 10SM
18:15
Fair
79°F / 26°C 63°F / 17°C 58% 30.15 in
(1021 mb)
Calm - 10SM
17:55
Fair
82°F / 28°C 61°F / 16°C 48% 30.15 in
(1021 mb)
Calm - 10SM
17:35
Fair
82°F / 28°C 59°F / 15°C 45% 30.15 in
(1021 mb)
Calm - 10SM
17:15
Fair
84°F / 29°C 59°F / 15°C 43% 30.15 in
(1021 mb)
Calm - 10SM
16:55
Fair
84°F / 29°C 59°F / 15°C 43% 30.15 in
(1021 mb)
Calm - 10SM
16:35
Fair
86°F / 30°C 57°F / 14°C 38% 30.15 in
(1021 mb)
SE 3.5 mph
(SE 6 kph)
- 10SM
16:15
Fair
86°F / 30°C 57°F / 14°C 38% 30.15 in
(1021 mb)
Calm - 10SM
15:55
Fair
86°F / 30°C 57°F / 14°C 38% 30.15 in
(1021 mb)
S 3.5 mph
(S 6 kph)
- 10SM
15:35
Fair
86°F / 30°C 57°F / 14°C 38% 30.15 in
(1021 mb)
Calm - 10SM
15:15
Fair
84°F / 29°C 57°F / 14°C 40% 30.15 in
(1021 mb)
S 3.5 mph
(S 6 kph)
- 10SM
14:55
Fair
86°F / 30°C 55°F / 13°C 35% 30.15 in
(1021 mb)
Calm - 10SM
14:35
Fair
86°F / 30°C 55°F / 13°C 35% 30.15 in
(1021 mb)
SE 3.5 mph
(SE 6 kph)
- 10SM
14:15
Fair
86°F / 30°C 55°F / 13°C 35% 30.15 in
(1021 mb)
SW 4.6 mph
(SW 7 kph)
- 10SM
13:55
Fair
84°F / 29°C 55°F / 13°C 37% 30.15 in
(1021 mb)
S 3.5 mph
(S 6 kph)
- 10SM
13:35
Fair
86°F / 30°C 57°F / 14°C 38% 30.15 in
(1021 mb)
SW 6.9 mph
(SW 11 kph)
- 10SM
13:15
Fair
84°F / 29°C 57°F / 14°C 40% 30.15 in
(1021 mb)
SW 4.6 mph
(SW 7 kph)
- 10SM
12:55
Fair
84°F / 29°C 57°F / 14°C 40% 30.15 in
(1021 mb)
SW 4.6 mph
(SW 7 kph)
- 10SM
12:35
Fair
84°F / 29°C 59°F / 15°C 43% 30.15 in
(1021 mb)
NE 3.5 mph
(NE 6 kph)
- 10SM
12:15
Fair
82°F / 28°C 57°F / 14°C 42% 30.15 in
(1021 mb)
Calm - 10SM
11:55
Fair
84°F / 29°C 59°F / 15°C 43% 30.18 in
(1022 mb)
Calm - 10SM
11:35
Fair
81°F / 27°C 59°F / 15°C 48% 30.18 in
(1022 mb)
Calm - 10SM
11:15
Fair
81°F / 27°C 57°F / 14°C 45% 30.18 in
(1022 mb)
SE 3.5 mph
(SE 6 kph)
- 10SM
10:55
Fair
77°F / 25°C 59°F / 15°C 54% 30.18 in
(1022 mb)
Calm - 10SM
10:35
Fair
75°F / 24°C 61°F / 16°C 61% 30.21 in
(1023 mb)
Calm - 10SM
10:15
Fair
73°F / 23°C 61°F / 16°C 65% 30.21 in
(1023 mb)
Calm - 10SM
09:55
Fair
72°F / 22°C 63°F / 17°C 73% 30.21 in
(1023 mb)
Calm - 10SM
09:35
Fair
68°F / 20°C 68°F / 20°C 100% 30.21 in
(1023 mb)
Calm - 10SM
09:15
Fair
64°F / 18°C 64°F / 18°C 100% 30.21 in
(1023 mb)
Calm - 10SM
08:55
Fair
63°F / 17°C 61°F / 16°C 94% 30.21 in
(1023 mb)
Calm - 10SM
08:35
Fair
61°F / 16°C 61°F / 16°C 100% 30.21 in
(1023 mb)
Calm - 10SM
08:15
Fog And Mist
61°F / 16°C 59°F / 15°C 94% 30.21 in
(1023 mb)
Calm - 1 3/4SM
07:55
Fog
59°F / 15°C 59°F / 15°C 100% 30.21 in
(1023 mb)
Calm - 1/4SM
07:35
Fog
59°F / 15°C 59°F / 15°C 100% 30.21 in
(1023 mb)
Calm - 1/4SM
07:15
Fog
59°F / 15°C 59°F / 15°C 100% 30.21 in
(1023 mb)
Calm - 1/4SM
06:55
Fog
59°F / 15°C 59°F / 15°C 100% 30.21 in
(1023 mb)
Calm - M1/4SM
06:35
Fog
59°F / 15°C 57°F / 14°C 94% 30.21 in
(1023 mb)
Calm - M1/4SM
06:15
Fog
59°F / 15°C 59°F / 15°C 100% 30.18 in
(1022 mb)
Calm - 1/4SM
05:55
Fog
59°F / 15°C 59°F / 15°C 100% 30.18 in
(1022 mb)
Calm - 1/4SM
05:35
Fog
59°F / 15°C 59°F / 15°C 100% 30.18 in
(1022 mb)
Calm - 1/4SM
05:15
Fog
59°F / 15°C 59°F / 15°C 100% 30.15 in
(1021 mb)
Calm - 1/4SM
04:55
Fog
59°F / 15°C 59°F / 15°C 100% 30.15 in
(1021 mb)
Calm - 1/4SM
04:35
Fog
59°F / 15°C 59°F / 15°C 100% 30.15 in
(1021 mb)
Calm - 1/4SM
04:15
Fog
61°F / 16°C 59°F / 15°C 94% 30.15 in
(1021 mb)
Calm - 1/4SM
03:55
Fog And Mist
59°F / 15°C 59°F / 15°C 100% 30.15 in
(1021 mb)
Calm - 3/4SM
03:35
Fog
61°F / 16°C 61°F / 16°C 100% 30.15 in
(1021 mb)
Calm - 1/4SM
03:15
Fog
61°F / 16°C 61°F / 16°C 100% 30.15 in
(1021 mb)
Calm - 1/4SM
02:55
Fair
59°F / 15°C 59°F / 15°C 100% 30.15 in
(1021 mb)
Calm - 7SM
02:35
Fog And Mist
59°F / 15°C 59°F / 15°C 100% 30.15 in
(1021 mb)
Calm - 5SM
02:15
Fog
61°F / 16°C 61°F / 16°C 100% 30.15 in
(1021 mb)
Calm - 1/2SM
01:55
Fog And Mist
61°F / 16°C 61°F / 16°C 100% 30.15 in
(1021 mb)
Calm - 4SM
01:35
Fog
61°F / 16°C 61°F / 16°C 100% 30.15 in
(1021 mb)
Calm - 1/2SM
01:15
Fog And Mist
61°F / 16°C 61°F / 16°C 100% 30.15 in
(1021 mb)
Calm - 3/4SM
00:55
Fog And Mist
61°F / 16°C 61°F / 16°C 100% 30.15 in
(1021 mb)
Calm - 1SM
00:35
Fog And Mist
61°F / 16°C 61°F / 16°C 100% 30.15 in
(1021 mb)
Calm - 5SM
00:15
Fog And Mist
63°F / 17°C 63°F / 17°C 100% 30.15 in
(1021 mb)
Calm - 3SM
Time Weather Temperature Dewpoint Humidity Pressure Winds Precip Visibility


Weather for websites

WeatherForYou.com, LLC is not responsible for any damages or problems caused by this service. Current weather conditions are obtained from the closest station including government and personal stations which may have varying degrees of accuracy. Weather forecasts are derived from the NOAA NDFD. Like all things, this site belongs to Jesus Christ... He just trusts me to maintain it. If you have any questions or comments email webmaster@weatherforyou.com

Copyright © 2014, WeatherForYou.com LLC. All rights reserved.